DELTA 1 DEB, 12529

Orbit data source: Space-Track

DELTA 1 DEB, 12529 is space debris in LEO originally from a launch on Thu, 29 Jul 1976 UTC launched from the Air Force Western Test Range (AFWTR). Debris objects in space refer to the collection of defunct objects orbiting the Earth. Examples of debris include non-operational satellites, rocket bodies, and fragments generated from explosions, collisions, or faulty payload assembly.

Loading next visibility...
Identifier
12529, 1976-077DJ
Orbit
LEO
Country
Flag of USUS
Related business
Manufacturer
Unknown
Mission
Spacecraft
Bus & Motor
Unknown
Mass
Unknown
Launch date (UTC)
1976-07-29 (50 years ago)
Launch vehicle
Unknown
Launch site
Air Force Western Test Range (AFWTR)
Object type
Payload
Rocket body
Debris
Shape & HBR
Unknown shape, 0.4 m
Radar Cross Section
Medium (>0.1 m² and <1 m²)

Expand to show TLE details & history
Last TLE update: 16 hours ago

TLE from 16 hours ago
0 DELTA 1 DEB
1 12529U 76077DJ  26071.26306232 -.00012364  00000-0 -21927+0 0  9994
2 12529 103.5332 201.6127 0688495 278.7930  73.5752 11.25635105821068
Epoch: 2026-03-12T06:18Z
TLE epoch observation values (Epoch: 2026-03-12T06:18:48.584Z)
Latitude
0.00002°
Longitude
-63.0052°
Altitude
1,908.274 km
Speed
6.989 km/s
True Right ascension
13h 26m 27s
True Declination
0° 00' 00"
Sunlit
Object was in full shadow at epoch
Visualization orbit readout
Latitude
Unknown
Longitude
Unknown
Altitude
Unknown
Speed
Unknown
Apparent Right ascension
Unknown
Apparent Declination
Unknown
Sunlit
N/A
Visualization observer readout
Local Sidereal Time
02:25:27
Azimuth
Unknown
Elevation
Unknown
Doppler factor
Unknown
Orbital elements
Apogee altitude
2,608.691 km
Perigee altitude
1,450.926 km
Semi-major axis
8,407.946 km
Eccentricity
0.06885
Inclination
103.5332°
RAAN
201.6127°
Arg. of periapsis
278.793°
True anomaly
81.30776°
Mean anomaly
73.5752°
Eccentric anomaly
77.42536°
Mean motion
2.81519 °/min
Orbital period
127.88 mins
BSTAR
-0.21927
Loading maneuver chart data...
Computing Atmospheric mass density...
Loading historical data...
Loading historical data...
Loading historical data...
Loading historical data...
Loading historical data...
Loading historical data...
Loading historical data...

Documentation

Showing up to 5 results
|